Gillette, WY

4:25 PM MDT on May 22, 2017 (GMT -0600)
Gillette-Campbell County

Weather History for KGCC - May, 2014

Change the Weather History Date:

Friday, May 2, 2014

  Actual Average Record
Temperature  
Mean Temperature 52 °F 48 °F  
Max Temperature 68 °F 61 °F 84 °F (1947)
Min Temperature 36 °F 36 °F 15 °F (2005)
Degree Days  
Heating Degree Days 13 17  
Month to date heating degree days 33 34  
Since 1 July heating degree days 7283 7050  
Cooling Degree Days 0 0  
Month to date cooling degree days 0 0  
Year to date cooling degree days 0 0  
Growing Degree Days 2 (Base 50)    
Moisture  
Dew Point 37 °F    
Average Humidity 64    
Maximum Humidity 92    
Minimum Humidity 35    
Precipitation  
Precipitation 0.00 in 0.07 in 0.35 in (1953)
Month to date precipitation 0.00 0.14  
Year to date precipitation 3.17 3.35  
Sea Level Pressure  
Sea Level Pressure 29.89 in    
Wind  
Wind Speed 12 mph (NW)    
Max Wind Speed 23 mph    
Max Gust Speed 30 mph    
Visibility 10 miles    
Events      
T = Trace of Precipitation, MM = Missing Value Source: NWS Daily Summary

Daily Weather History Graph

Daily Weather History Graph

Search for Another Location

Airport or City:

Trip Planner

Search our weather history database for the weather conditions in past years. The results will help you decide how hot, cold, wet, or windy it might be!

Date:

Astronomy

May. 02, 2014 Rise Set
Actual Time 5:51 AM MDT 8:07 PM MDT
Civil Twilight 5:19 AM MDT 8:39 PM MDT
Nautical Twilight 4:39 AM MDT 9:19 PM MDT
Astronomical Twilight 3:55 AM MDT 10:04 PM MDT
Moon 8:28 AM MDT (5/2) 11:34 PM MDT (5/2)
Length of Visible Light 15h 20m
Length of Day
14h 16m
Waxing Crescent, 13% of the Moon is Illuminated
May 2
Waxing Crescent
May 6
First Quarter
May 14
Full
May 21
Last Quarter
May 28
New

Hourly Weather History & Observations

Time (MDT) Temp. Windchill Dew Point Humidity Pressure Visibility Wind Dir Wind Speed Gust Speed Precip Events Conditions
12:53 AM 45.0 °F 41.2 °F 30.9 °F 58% 29.99 in 10.0 mi South 6.9 mph - N/A   Overcast
1:53 AM 44.1 °F 39.5 °F 30.0 °F 58% 29.97 in 10.0 mi WSW 8.1 mph - N/A   Scattered Clouds
2:53 AM 46.0 °F 40.6 °F 30.9 °F 56% 29.94 in 10.0 mi WSW 11.5 mph - N/A   Partly Cloudy
3:53 AM 46.9 °F - 30.0 °F 52% 29.91 in 10.0 mi SW 16.1 mph - N/A   Clear
4:53 AM 46.9 °F - 30.0 °F 52% 29.90 in 10.0 mi SW 16.1 mph - N/A   Partly Cloudy
5:53 AM 46.9 °F - 30.9 °F 54% 29.88 in 10.0 mi WSW 13.8 mph - N/A   Partly Cloudy
6:53 AM 50.0 °F - 33.1 °F 52% 29.86 in 10.0 mi SW 17.3 mph - N/A   Partly Cloudy
7:53 AM 53.1 °F - 34.0 °F 48% 29.88 in 10.0 mi WSW 17.3 mph - N/A   Overcast
8:53 AM 61.0 °F - 37.0 °F 41% 29.88 in 10.0 mi West 12.7 mph - N/A   Partly Cloudy
9:53 AM 63.0 °F - 36.0 °F 37% 29.88 in 10.0 mi NW 15.0 mph - N/A   Mostly Cloudy
10:53 AM 63.0 °F - 39.0 °F 41% 29.90 in 10.0 mi North 8.1 mph - N/A   Clear
11:53 AM 66.2 °F - 41.0 °F 40% 29.93 in 10.0 mi North 12.7 mph - N/A   Clear
12:53 PM 66.0 °F - 39.9 °F 38% 29.84 in 10.0 mi NNW 15.0 mph 21.9 mph N/A   Clear
1:53 PM 66.9 °F - 39.9 °F 37% 29.84 in 10.0 mi North 15.0 mph 26.5 mph N/A   Clear
2:53 PM 66.9 °F - 39.9 °F 37% 29.83 in 10.0 mi North 16.1 mph 28.8 mph N/A   Clear
3:53 PM 68.0 °F - 39.9 °F 36% 29.83 in 10.0 mi North 17.3 mph 24.2 mph N/A   Clear
4:53 PM 66.0 °F - 42.1 °F 42% 29.83 in 10.0 mi NNE 16.1 mph 20.7 mph N/A   Clear
5:53 PM 62.6 °F - 42.8 °F 48% 29.92 in 10.0 mi NNE 15.0 mph - N/A   Clear
6:53 PM 60.1 °F - 43.0 °F 53% 29.86 in 10.0 mi NE 12.7 mph - N/A   Clear
7:53 PM 53.1 °F - 42.1 °F 66% 29.90 in 10.0 mi NE 11.5 mph - N/A   Clear
8:53 PM 48.0 °F - 41.0 °F 77% 29.89 in 10.0 mi NE 5.8 mph - N/A   Clear
9:53 PM 41.0 °F - 37.9 °F 89% 29.91 in 10.0 mi Calm Calm - N/A   Clear
10:53 PM 37.0 °F - 35.1 °F 93% 29.91 in 10.0 mi Calm Calm - N/A   Clear
11:53 PM 39.9 °F - 37.9 °F 93% 29.90 in 10.0 mi Calm Calm - N/A   Clear